EW4055 Weather Reports


Display with metric or nautical units.
time (UTC)temp
F
wind
direction
speed
MPH
gust
MPH
rain 1hr
in
rain 24hr
in
rain mn
in
humidity
%
barometer
mb
20260831214232 75 193 0.0 0.0 0.00 0.00 0.00 75 1015.3
20260831213232 75 193 0.0 2.0 0.00 0.00 0.00 75 1015.3
20260831212233 75 193 0.0 2.0 0.00 0.00 0.00 75 1015.3
20260831211852 75 193 0.0 1.0 0.00 0.00 0.00 75 1015.1
20260831210232 75 193 0.0 0.0 0.00 0.00 0.00 75 1015.1
20260831205234 76 193 0.0 2.0 0.00 0.00 0.00 75 1015.1
20260831204232 76 193 0.0 2.0 0.00 0.00 0.00 75 1015.0
20260831203611 76 159 1.0 2.0 0.00 0.00 0.00 74 1014.8
20260831203336 76 193 0.0 2.0 0.00 0.00 0.00 74 1015.0
20260831201232 76 169 1.0 3.0 0.00 0.00 0.00 73 1014.8
20260831200236 77 189 1.0 4.0 0.00 0.00 0.00 72 1014.7
20260831195658 77 238 1.0 2.0 0.00 0.00 0.00 71 1014.7
20260831195344 77 148 1.0 3.0 0.00 0.00 0.00 72 1014.7
20260831193225 77 161 1.0 3.0 0.00 0.00 0.00 71 1014.8
20260831192224 78 114 1.0 4.0 0.00 0.00 0.00 71 1014.8
20260831191223 78 114 2.0 4.0 0.00 0.00 0.00 70 1014.8
20260831190226 78 134 3.0 5.0 0.00 0.00 0.00 70 1014.9
20260831185222 78 102 4.0 5.0 0.00 0.00 0.00 69 1014.9
20260831184223 79 97 2.0 4.0 0.00 0.00 0.00 68 1014.8
20260831183653 79 117 3.0 6.0 0.00 0.00 0.00 66 1014.7
20260831183334 79 85 3.0 5.0 0.00 0.00 0.00 66 1014.7
20260831181948 80 107 4.0 5.0 0.00 0.00 0.00 64 1014.7
20260831180222 80 61 4.0 6.0 0.00 0.00 0.00 63 1014.7
20260831175221 80 51 4.0 5.0 0.00 0.00 0.00 63 1014.7
20260831174925 80 58 3.0 6.0 0.00 0.00 0.00 62 1014.7
20260831173221 81 41 4.0 5.0 0.00 0.00 0.00 61 1014.7
20260831172910 81 59 3.0 4.0 0.00 0.00 0.00 59 1014.6
20260831171220 81 54 2.0 6.0 0.00 0.00 0.00 60 1014.6
20260831170221 82 28 4.0 6.0 0.00 0.00 0.00 60 1014.7
20260831165220 82 62 2.0 5.0 0.00 0.00 0.00 59 1014.6
20260831164220 82 58 3.0 10.0 0.00 0.00 0.00 60 1014.8
20260831163219 83 59 6.0 9.0 0.00 0.00 0.00 59 1014.8
20260831162218 83 59 5.0 7.0 0.00 0.00 0.00 58 1014.9
20260831161945 83 66 3.0 9.0 0.00 0.00 0.00 58 1014.9
20260831160218 83 75 4.0 9.0 0.00 0.00 0.00 58 1015.0
20260831155224 84 23 5.0 9.0 0.00 0.00 0.00 58 1015.0
20260831154220 84 87 6.0 11.0 0.00 0.00 0.00 57 1014.9
20260831153220 84 25 4.0 9.0 0.00 0.00 0.00 54 1015.0
20260831152218 84 87 4.0 9.0 0.00 0.00 0.00 53 1014.9
20260831151220 85 59 4.0 10.0 0.00 0.00 0.00 53 1015.0
20260831150218 85 21 6.0 10.0 0.00 0.00 0.00 54 1015.0
20260831145217 85 44 6.0 10.0 0.00 0.00 0.00 55 1015.0
20260831144217 85 0 3.0 9.0 0.00 0.00 0.00 56 1015.1
20260831143221 85 51 4.0 11.0 0.00 0.00 0.00 55 1015.0
20260831142826 85 0 5.0 11.0 0.00 0.00 0.00 55 1015.0
20260831141659 86 62 6.0 12.0 0.00 0.00 0.00 54 1015.0
20260831141332 86 7 6.0 13.0 0.00 0.00 0.00 54 1015.0
20260831135214 86 96 10.0 15.0 0.00 0.00 0.00 54 1015.1
20260831134215 86 39 6.0 12.0 0.00 0.00 0.00 54 1014.9
20260831133215 86 55 7.0 16.0 0.00 0.00 0.00 54 1015.0
20260831132900 86 63 6.0 13.0 0.00 0.00 0.00 54 1015.0
20260831131217 86 355 6.0 13.0 0.00 0.00 0.00 55 1014.9
20260831130216 87 10 7.0 15.0 0.00 0.00 0.00 55 1015.0
20260831125214 87 7 6.0 12.0 0.00 0.00 0.00 56 1015.1
20260831124215 87 102 7.0 12.0 0.00 0.00 0.00 55 1015.0
20260831123901 87 6 6.0 13.0 0.00 0.00 0.00 55 1015.0
20260831122215 87 30 8.0 15.0 0.00 0.00 0.00 54 1015.0
20260831121214 87 51 7.0 13.0 0.00 0.00 0.00 55 1014.9
20260831120219 87 61 9.0 14.0 0.00 0.00 0.00 54 1014.9
20260831115211 87 92 8.0 15.0 0.00 0.00 0.00 57 1014.9
20260831114213 87 31 6.0 14.0 0.00 0.00 0.00 57 1014.9
20260831113211 87 24 6.0 13.0 0.00 0.00 0.00 57 1015.2
20260831112211 87 63 6.0 15.0 0.00 0.00 0.00 56 1015.1
20260831111213 87 353 6.0 13.0 0.00 0.00 0.00 56 1015.1
20260831110929 88 45 7.0 15.0 0.00 0.00 0.00 55 1015.1
20260831105211 88 92 7.0 14.0 0.00 0.00 0.00 52 1015.1
20260831104214 89 89 9.0 15.0 0.00 0.00 0.00 52 1015.1
20260831103214 89 76 5.0 9.0 0.00 0.00 0.00 45 1015.2
20260831102214 89 0 3.0 9.0 0.00 0.00 0.00 44 1015.2
20260831101212 89 87 4.0 5.0 0.00 0.00 0.00 43 1015.3
20260831100210 89 8 1.0 6.0 0.00 0.00 0.00 44 1015.5
20260831095208 89 353 4.0 7.0 0.00 0.00 0.00 45 1015.5
20260831094212 88 317 3.0 5.0 0.00 0.00 0.00 44 1015.5
20260831093212 87 56 3.0 6.0 0.00 0.00 0.00 46 1015.5
20260831092213 87 357 4.0 7.0 0.00 0.00 0.00 49 1015.6
20260831091209 86 130 3.0 6.0 0.00 0.00 0.00 49 1015.6
20260831090210 85 37 2.0 5.0 0.00 0.00 0.00 49 1015.7
20260831085210 85 21 3.0 5.0 0.00 0.00 0.00 50 1015.6
20260831084210 85 340 3.0 6.0 0.00 0.00 0.00 50 1015.6
20260831083914 84 295 3.0 5.0 0.00 0.00 0.00 51 1015.6
20260831082209 83 320 1.0 5.0 0.00 0.00 0.00 52 1015.6
20260831081207 82 321 3.0 4.0 0.00 0.00 0.00 55 1015.5
20260831080207 82 7 1.0 4.0 0.00 0.00 0.00 55 1015.5
20260831075210 81 354 2.0 5.0 0.00 0.00 0.00 57 1015.5
20260831074852 80 45 2.0 5.0 0.00 0.00 0.00 58 1015.4
20260831073210 79 334 2.0 4.0 0.00 0.00 0.00 61 1015.3
20260831072208 78 54 2.0 4.0 0.00 0.00 0.00 65 1015.3
20260831071204 77 278 0.0 3.0 0.00 0.00 0.00 65 1015.3
20260831070207 76 278 2.0 3.0 0.00 0.00 0.00 68 1015.4
20260831065207 75 278 2.0 3.0 0.00 0.00 0.00 69 1015.3
20260831064843 75 278 0.0 2.0 0.00 0.00 0.00 69 1015.2
20260831063205 74 278 1.0 5.0 0.00 0.00 0.00 70 1015.2
20260831062205 74 281 3.0 4.0 0.00 0.00 0.00 70 1015.2
20260831061208 73 307 3.0 5.0 0.00 0.00 0.00 71 1015.3
20260831060210 73 283 2.0 5.0 0.00 0.00 0.00 71 1015.2
20260831055206 73 250 2.0 5.0 0.00 0.00 0.00 70 1015.2
20260831054203 73 251 2.0 4.0 0.00 0.00 0.00 70 1015.1
20260831053203 72 285 3.0 4.0 0.00 0.00 0.00 70 1015.1
20260831052204 72 276 2.0 3.0 0.00 0.00 0.00 70 1015.1
20260831051207 72 286 1.0 3.0 0.00 0.00 0.00 70 1015.0
20260831050801 72 265 0.0 2.0 0.00 0.00 0.00 70 1015.0
20260831045202 72 278 1.0 4.0 0.00 0.00 0.00 69 1015.0
20260831044202 72 300 2.0 4.0 0.00 0.00 0.00 69 1014.9
20260831043340 72 266 3.0 6.0 0.00 0.00 0.00 69 1014.8
20260831043236 72 283 2.0 6.0 0.00 0.00 0.00 70 1014.9
20260831042538 72 279 4.0 5.0 0.00 0.00 0.00 70 1014.9
20260831041834 72 292 4.0 7.0 0.00 0.00 0.00 70 1014.9
20260831035848 72 265 4.0 9.0 0.00 0.00 0.00 70 1014.8
20260831034201 72 259 2.0 5.0 0.00 0.00 0.00 70 1014.7
20260831033840 72 282 4.0 4.0 0.00 0.00 0.00 70 1014.8
20260831032204 72 278 3.0 5.0 0.00 0.00 0.00 69 1014.8
20260831031202 73 288 3.0 4.0 0.00 0.00 0.00 69 1014.7
20260831030839 73 292 2.0 5.0 0.00 0.00 0.00 68 1014.8
20260831025833 74 266 2.0 10.0 0.00 0.00 0.00 67 1014.7
20260831024200 74 279 4.0 7.0 0.00 0.00 0.00 66 1014.8
20260831023203 74 269 3.0 4.0 0.00 0.00 0.00 66 1014.7
20260831022202 74 289 3.0 5.0 0.00 0.00 0.00 66 1014.7
20260831021204 74 282 3.0 4.0 0.00 0.00 0.00 67 1014.8
20260831020205 73 282 2.0 4.0 0.00 0.00 0.00 67 1014.9
20260831015157 73 283 3.0 5.0 0.00 0.00 0.00 67 1014.9
20260831014158 74 272 3.0 6.0 0.00 0.00 0.00 66 1014.9
20260831013158 74 282 4.0 6.0 0.00 0.00 0.00 66 1015.0
20260831012156 74 289 3.0 4.0 0.00 0.00 0.00 66 1015.0
20260831011157 74 279 4.0 5.0 0.00 0.00 0.00 66 1015.1
20260831010159 73 278 2.0 3.0 0.00 0.00 0.00 67 1015.0
20260831005157 73 268 2.0 3.0 0.00 0.00 0.00 67 1015.0
20260831004155 73 243 2.0 3.0 0.00 0.00 0.00 67 1015.0
20260831003157 73 274 2.0 3.0 0.00 0.00 0.00 67 1015.0
20260831002202 73 244 2.0 3.0 0.00 0.00 0.00 66 1015.0
20260831001156 73 252 2.0 3.0 0.00 0.00 0.00 66 1015.1
20260831000207 73 250 2.0 3.0 0.00 0.00 0.00 65 1015.2
20260830235154 73 248 2.0 3.0 0.00 0.00 0.00 65 1015.2
20260830234158 73 282 2.0 4.0 0.00 0.00 0.00 64 1015.2
20260830233157 73 272 2.0 5.0 0.00 0.00 0.00 64 1015.3
20260830232157 74 281 2.0 4.0 0.00 0.00 0.00 64 1015.3
20260830231811 74 272 2.0 3.0 0.00 0.00 0.00 63 1015.3
20260830230327 74 281 2.0 3.0 0.00 0.00 0.00 62 1015.3
20260830230225 74 248 2.0 3.0 0.00 0.00 0.00 63 1015.3
20260830225306 74 252 2.0 3.0 0.00 0.00 0.00 62 1015.3
20260830223155 74 279 2.0 3.0 0.00 0.00 0.00 62 1015.4
20260830222156 74 250 2.0 3.0 0.00 0.00 0.00 62 1015.4
20260830221155 74 251 2.0 3.0 0.00 0.00 0.00 61 1015.5
20260830220204 74 244 2.0 4.0 0.00 0.00 0.00 60 1015.4
20260830215155 75 241 3.0 4.0 0.00 0.00 0.00 60 1015.4